Location: Newark
(4.2170°N, 12.9170°E)
Time: 17:01:03
(UTC+00:00)

N. Korean satellite - Pass Details

Date: 21 November 2019
Orbit: 456 x 506 km, 97.2° (Epoch: 05 December)

Event Time Altitude Azimuth Distance (km) Brightness Sun altitude
Rises 03:54:02 0° 40° (NE) 2,547 10.5 -15.5°
Reaches altitude 10° 03:56:51 10° 65° (ENE) 1,657 9.9 -14.9°
Maximum altitude 03:58:53 15° 100° (E) 1,387 10.1 -14.4°
Drops below altitude 10° 04:00:55 10° 135° (SE) 1,644 10.3 -13.9°
Sets 04:03:40 0° 160° (SSE) 2,511 10.8 -13.3°
